Location: Unspecified
(52.1384°N, 8.6525°W)
Time: 19:05:20
(UTC+00:00)

N. Korean satellite - Pass Details

Date: 31 October 2020
Orbit: 453 x 503 km, 97.2° (Epoch: 04 December)

Event Time Altitude Azimuth Distance (km) Brightness Sun altitude
Rises 06:44:47 0° 8° (N) 2,485 10.1 -7.2°
Reaches altitude 10° 06:46:53 10° 2° (N) 1,604 9.1 -6.9°
Maximum altitude 06:50:10 44° 289° (WNW) 640 6.7 -6.4°
Drops below altitude 10° 06:53:25 10° 216° (SW) 1,592 9.0 -6.0°
Sets 06:55:30 0° 210° (SSW) 2,463 10.0 -5.7°
